www.pogodaiklimat.ru

Погода и климат >> Архив погоды >> Индонезия >> Голеа


ПОГОДА в Голеа

  • Прогноз погоды в Голеа
  • Монитор погоды в Голеа

АРХИВ ПОГОДЫ в Голеа

Время (UTC), дата Ветер
(напр.,м/с)
 
Видим.   Явления Облачность Т
(С)
Тd
(С)
f
(%)
Тe
(С)
Тes
(С)
Комфортность P
(гПа)
Po
(гПа)
Тmin
(С)
Tmax
(С)
R
(мм)
R24
(мм)
S
(см)
03 12.08 СВ 2 10 км 6/5 540 м
[Cu med, cong Ac trans Ci fib]
+31.6 +24.1 65 +44 +53 опасность
перегрева
1010.5 1006.4
06 12.08 СВ 1 10 км 5/4 540 м
[Cu med, cong Ac trans Ci fib]
+32.0 +24.9 66 +45 +54 опасность
перегрева
1008.1 1004.0
09 12.08 штиль 0 10 км 6/5 540 м
[Cu med, cong Ac trans Ci fib]
+30.0 +25.7 78 +45 +45 опасность
перегрева
1009.0 1004.9
12 12.08 штиль 0 10 км 6/4 540 м
[Cu med, cong Ac trans Ci fib]
+26.3 +25.2 94 +38 +38 очень
душно
1011.6 1007.5 +32.9
15 12.08 штиль 0 10 км 6/3 540 м
[Cu hum Ac trans Ci fib]
+24.8 +24.4 98 +35 +35 очень
душно
1012.2 1008.1
18 12.08 штиль 0 10 км 6/3 540 м
[Cu hum Ac trans Ci fib]
+24.0 +23.6 98 +33 +33 очень
душно
1011.2 1007.1
21 12.08 штиль 0 10 км 6/1 540 м
[Cu hum Ac trans Ci fib]
+22.7 +22.3 98 +31 +31 очень
душно
1011.0 1006.9
00 13.08 штиль 0 10 км 5/1 540 м
[Cu hum Ci fib]
+26.8 +23.8 84 +37 +46 очень
душно
1012.0 1007.9 +22.6
03 13.08 В 2 10 км 5/1 540 м
[Cu hum Ci fib]
+31.4 +24.2 66 +44 +61 опасность
перегрева
1010.7 1006.6
06 13.08 СВ 1 10 км 6/4 540 м
[Cu med, cong Ac trans Ci fib]
+32.6 +25.0 64 +46 +54 опасность
перегрева
1008.4 1004.3
09 13.08 З 4 10 км 6/4 540 м
[Cu med, cong Ac trans Ci fib]
+29.0 +24.2 75 +40 +40 очень
душно
1009.7 1005.6
12 13.08 штиль 0 10 км 5/4 540 м
[Cu med, cong Ci fib]
+25.6 +24.6 94 +36 +36 очень
душно
1011.7 1007.6 +33.0
15 13.08 штиль 0 10 км 5/4 540 м
[Cu med, cong Ci fib]
+25.0 +24.3 96 +35 +35 очень
душно
1012.8 1008.7
18 13.08 штиль 0 10 км 5/4 540 м
[Cu med, cong Ci fib]
+24.2 +23.8 98 +33 +33 очень
душно
1012.3 1008.2
21 13.08 штиль 0 10 км 8/3 540 м
[Cu hum Ac trans Ci fib]
+22.6 +22.2 98 +30 +30 очень
душно
1011.9 1007.8
00 14.08 З 1 10 км 9/1 540 м
[Cu hum Ci sp]
+25.6 +23.5 88 +35 +42 очень
душно
1012.9 1008.8 +22.6
03 14.08 штиль 0 5000 м {метель} 9/4 540 м
[Cu med, cong Ac trans Ci fib]
+32.0 +24.0 63 +44 +54 опасность
перегрева
1011.4 1007.3
06 14.08 штиль 0 6000 м {метель} 9/4 540 м
[Cu med, cong Ac trans Ci fib]
+31.9 +24.0 63 +44 +50 опасность
перегрева
1009.4 1005.3
09 14.08 ЮЗ 3 8000 м {дождь} 8/5 500 м
[Cb cap Ac trans Ci fib]
+27.2 +25.7 92 +40 +40 очень
душно
1010.3 1006.2
12 14.08 Ю 2 10 км {дождь} 9/4 540 м
[Cu med, cong Ac trans Ci fib]
+24.5 +23.5 94 +33 +33 очень
душно
1012.0 1007.9 +32.9 4
15 14.08 штиль 0 10 км 9/4 540 м
[Cu med, cong Ac trans Ci fib]
+24.0 +23.3 96 +32 +32 очень
душно
1012.7 1008.6
18 14.08 штиль 0 10 км 9/4 540 м
[Cu med, cong Ac trans Ci fib]
+23.8 +23.1 96 +32 +32 очень
душно
1011.5 1007.4
21 14.08 штиль 0 10 км 9/4 540 м
[Cu med, cong Ac trans Ci fib]
+23.2 +22.8 98 +32 +32 очень
душно
1011.8 1007.7
00 15.08 штиль 0 10 км 8/1 540 м
[Cu hum Ac trans Ci fib]
+25.8 +23.4 87 +35 +41 очень
душно
1012.7 1008.6 +23.2 4
03 15.08 В 1 10 км 8/4 540 м
[Cu med, cong Ac trans Ci fib]
+31.2 +24.5 68 +44 +54 опасность
перегрева
1012.0 1007.9
06 15.08 СВ 1 10 км 5/4 540 м
[Cu med, cong Ac trans Ci fib]
+32.1 +24.9 66 +46 +54 опасность
перегрева
1009.6 1005.5
09 15.08 штиль 0 10 км в посл. час дождь 9/5 540 м
[Cu med, cong Ac trans Ci fib]
+27.3 +25.4 89 +40 +40 очень
душно
1010.5 1006.4 0.3
12 15.08 штиль 0 10 км {дождь} 9/5 540 м
[Cu med, cong Ac trans Ci fib]
+25.6 +24.4 93 +36 +36 очень
душно
1012.2 1008.1 +32.4 0.3
15 15.08 штиль 0 10 км {гроза} 10/3 540 м
[Cu med, cong Ac trans Ci ing]
+24.7 +24.0 96 +34 +34 очень
душно
1012.4 1008.3
18 15.08 штиль 0 10 км {гроза} 6/1 540 м
[Cu med, cong Ac trans Ci fib]
+24.2 +23.8 98 +33 +33 очень
душно
1011.4 1007.3
21 15.08 штиль 0 10 км 5/1 540 м
[Cu hum Ac trans Ci fib]
+23.4 +23.0 98 +33 +33 очень
душно
1011.2 1007.1
00 16.08 ЮЗ 2 10 км 5/1 540 м
[Cu hum Ac trans Ci fib]
+27.0 +23.6 82 +37 +43 очень
душно
1012.5 1008.4 +23.4 0.3
03 16.08 В 2 10 км 6/4 540 м
[Cu med, cong Ac trans Ci fib]
+31.7 +24.1 64 +44 +54 опасность
перегрева
1011.5 1007.4
06 16.08 З 2 10 км в посл. час гроза {дождь} 9/5 540 м
[Cu med, cong As op Ci sp]
+28.2 +25.3 84 +41 +45 опасность
перегрева
1010.2 1006.1 2
09 16.08 ЮЗ 3 10 км 8/5 540 м
[Cu med, cong Ac trans Ci sp]
+28.9 +24.7 78 +41 +41 опасность
перегрева
1010.0 1005.9
12 16.08 штиль 0 10 км гроза без осадков 9/5 540 м
[Cb cap Ac trans Ci sp]
+25.9 +24.8 94 +37 +37 очень
душно
1011.8 1007.7 +32.2
15 16.08 штиль 0 10 км 8/4 540 м
[Cu med, cong Ac trans Ci sp]
+24.9 +24.1 95 +34 +34 очень
душно
1012.1 1008.0
18 16.08 штиль 0 10 км 5/4 540 м
[Cu med, cong Ac trans Ci fib]
+23.6 +22.9 96 +31 +31 очень
душно
1011.1 1007.0
21 16.08 штиль 0 10 км 5/3 540 м
[Cu med, cong Ac trans Ci fib]
+22.6 +22.2 98 +30 +30 очень
душно
1011.3 1007.2
00 17.08 ЮЗ 1 10 км 6/1 540 м
[Cu hum Ac trans Ci fib]
+27.0 +23.3 80 +36 +43 очень
душно
1012.1 1008.0 +22.4 2
03 17.08 штиль 0 10 км 6/5 540 м
[Cu med, cong Ac trans Ci fib]
+31.2 +25.2 70 +45 +58 опасность
перегрева
1011.2 1007.1
06 17.08 Ю 2 4000 м гроза, ливневой дождь 9/5 500 м
[Cb cap Ac As Ci fib]
+25.9 +23.6 87 +35 +40 очень
душно
1010.6 1006.5 0.5
09 17.08 ЮЗ 2 10 км {гроза, дождь} 6/4 540 м
[Cu med, cong Ac As Ci fib]
+27.0 +24.8 88 +39 +39 очень
душно
1010.2 1006.1 1
12 17.08 штиль 0 10 км {гроза, дождь} 5/3 540 м
[Cu med, cong Ci fib]
+24.2 +23.5 96 +33 +33 очень
душно
1012.3 1008.2 +32.1 1
15 17.08 штиль 0 10 км 5/1 540 м
[Cu hum Ci fib]
+23.3 +22.9 98 +33 +33 очень
душно
1013.0 1008.9
18 17.08 штиль 0 10 км 5/1 540 м
[Cu hum Ac trans Ci fib]
+22.8 +22.4 98 +31 +31 очень
душно
1012.1 1008.0
21 17.08 штиль 0 10 км 8/1 540 м
[Cu hum Ac trans Ci fib]
+21.2 +20.9 98 +27 +27 душно 1010.6 1006.5
00 18.08 штиль 0 10 км 1/1 540 м
[Cu hum Ac trans Ci fib]
+26.8 +23.2 81 +36 +46 очень
душно
1011.8 1007.7 +21.2 1
03 18.08 З 3 10 км 1/1 540 м
[Cu med, cong Ac trans Ci fib]
+31.4 +24.2 66 +44 +59 опасность
перегрева
1010.9 1006.8
06 18.08 З 7 10 км 3/3 540 м
[Cu med, cong Ci fib]
+31.7 +23.9 63 +43 +46 опасность
перегрева
1009.0 1004.9
09 18.08 З 3 10 км {гроза} 5/3 540 м
[Cu med, cong Ac cuf Ci ing]
+27.7 +23.7 79 +38 +38 очень
душно
1009.0 1004.9
12 18.08 З 2 10 км {гроза} 5/1 540 м
[Cu med, cong Ac trans Ci fib]
+25.0 +23.2 90 +33 +33 очень
душно
1011.2 1007.1 +32.1
15 18.08 штиль 0 10 км 4/3 570 м
[Cu med, cong Ac trans Ci fib]
+23.6 +22.9 96 +31 +31 очень
душно
1011.8 1007.7
18 18.08 штиль 0 10 км 9/3 570 м
[Cu med, cong Ac trans Ci fib]
+23.5 +23.1 98 +31 +31 очень
душно
1010.7 1006.6 85
21 18.08 ЮЗ 2 10 км 9/3 570 м
[Cu med, cong Ac trans Ci fib]
+23.4 +23.0 98 +33 +33 очень
душно
1009.8 1005.7
00 19.08 З 2 10 км 5/3 540 м
[Cu hum Ac trans Ci fib]
+28.4 +23.1 73 +38 +43 очень
душно
1010.9 1006.8 +23.3

 

Местоположение метеостанции Голеа (Индонезия): широта 1.82 долгота 127.83 высота над уровнем моря 8 м.

В архиве по умолчанию представлена погода в Голеа за последнюю неделю. Архивные данные за месяц целиком и за предыдущие месяцы, начиная с января 2011 года, Вы можете получить, выбрав интересующий диапазон дат из раскрывающегося списка и нажав кнопку "Ввод!".


*Определитесь, кто Вы:
робот инопланетянин человек

Внимание! Время в таблицах - всемирное. Для получения местного времени необходимо прибавить поправку, которая равна 8 ч.

Смотрите также архив погоды в соседних городах и на ближайших метеорологических станциях:

Погода в Тернате (Индонезия) (128 км)
Погода в Лабухе (Индонезия) (275 км)
Погода в Битунге (Индонезия) (298 км)
Погода в Менадо (Индонезия) (326 км)
Погода в Аэропорту Соронг-Джефман (Индонезия) (476 км)
Погода на Санане (Индонезия) (479 км)
Погода в Горонтало (Индонезия) (550 км)
Погода в Генерал-Сантосе (Филиппины) (561 км)
Погода в Намлеа (Индонезия) (570 км)
Погода в Амахаи (Индонезия) (587 км)

Пояснения к столбцам:

Ветер - указаны скорость ветра в м/с - средняя за 10 мин, порывы в срок и между сроками (в фигурных скобках) и направление, откуда дует ветер: С - северный, СВ - северо-восточный, В - восточный, ЮВ - юго-восточный, Ю - южный, ЮЗ - юго-западный, З - западный, СЗ - северо-западный.
Видимость - горизонтальная дальность видимости в метрах или километрах. При видимости от 1 до 10 км при отсутствии осадков обычно наблюдается дымка, при ухудшении видимости до 1 км и менее - туман. В сухую погоду видимость может ухудшаться дымом, пылью или мглою.
Явления - указаны атмосферные явления, наблюдавшиеся в срок или в последний час перед сроком; фигурными скобками обозначены явления, наблюдавшиеся между сроками (за 1-3 часа до срока); квадратными скобками обозначены град или гололедные отложения с указанием их диаметра в мм.
Облачность - указаны через наклонную черту общая и нижняя облачность в баллах и высота нижней границы облаков в метрах; квадратными скобками обозначены формы облаков: Ci - перистые, Cs - перисто-слоистые, Cc - перисто-кучевые, Ac - высококучевые, As - высокослоистые, Sc - слоисто-кучевые, Ns - слоисто-дождевые, Cu - кучевые, Cb - кучево-дождевые. Подробнее классификацию облаков см. в Атласе облаков (PDF).
T - Температура воздуха - температура, измеренная на высоте 2 м над землей.
Td - Температура точки росы - температура, при понижении до которой содержащийся в воздухе водяной пар достигнет насыщения.
f - Относительная влажность воздуха - влажноcть воздуха, измеренная на высоте 2 м над землей.
Te - Эффективная температура - температура, которую ощущает одетый по сезону человек в тени. Характеристика душности погоды. При расчете учитывается влияние влажности воздуха и скорости ветра на теплоощущения человека.
Tes - Эффективная температура на солнце - температура, которую ощущает человек, с поправкой на солнечный нагрев. Характеристика знойности погоды. Зависит от высоты солнца над горизонтом, облачности и скорости ветра. Ночью, в пасмурную погоду, а также при ветре 12 м/с и более поправка равна нулю.
P - Атмосферное давление - приведенное к уровню моря атмосферное давление.
Po - Атмосферное давление - измеренное на уровне метеостанции атмосферное давление.
Tmin - Минимальная температура - минимум температуры воздуха на высоте 2 м над землей.
Tmax - Максимальная температура - максимум температуры воздуха на высоте 2 м над землей.
R - Количество осадков - Количество выпавших осадков за период времени, мм. При наведении курсора мыши на число - период времени, за который выпало указанное количество осадков.
R24 - Количество осадков - Количество выпавших осадков за 24 часа, мм.
S - Снежный покров - Высота снежного покрова, см. При наведении курсора мыши на число - состояние снежного покрова и степень покрытия местности в баллах.